Middletown, PA

6:19 PM EDT on July 24, 2017 (GMT -0400)
Harrisburg International

Weather History for KMDT - June, 2014

Change the Weather History Date:

Tuesday, June 3, 2014

  Actual Average Record
Temperature  
Mean Temperature 75 °F 68 °F  
Max Temperature 85 °F 77 °F 96 °F (1919)
Min Temperature 65 °F 58 °F 44 °F (1929)
Degree Days  
Heating Degree Days 0 2  
Month to date heating degree days 0 6  
Since 1 June heating degree days 0 6  
Since 1 July heating degree days 5725 5257  
Cooling Degree Days 10 4  
Month to date cooling degree days 18 12  
Year to date cooling degree days 78 77  
Since 1 June cooling degree days 18 12  
Growing Degree Days 25 (Base 50)    
Moisture  
Dew Point 64 °F    
Average Humidity 74    
Maximum Humidity 93    
Minimum Humidity 55    
Precipitation  
Precipitation 0.24 in 0.11 in 1.25 in (1910)
Month to date precipitation 0.24 0.34  
Year to date precipitation 21.88 15.87  
Sea Level Pressure  
Sea Level Pressure 29.91 in    
Wind  
Wind Speed 4 mph (SSW)    
Max Wind Speed 28 mph    
Max Gust Speed 35 mph    
Visibility 9 miles    
Events Rain , Thunderstorm    
T = Trace of Precipitation, MM = Missing Value Source: NWS Daily Summary

Daily Weather History Graph

Daily Weather History Graph

Search for Another Location

Airport or City:

Trip Planner

Search our weather history database for the weather conditions in past years. The results will help you decide how hot, cold, wet, or windy it might be!

Date:

Astronomy

Jun. 03, 2014 Rise Set
Actual Time 5:38 AM EDT 8:31 PM EDT
Civil Twilight 5:06 AM EDT 9:04 PM EDT
Nautical Twilight 4:25 AM EDT 9:45 PM EDT
Astronomical Twilight 3:38 AM EDT 10:32 PM EDT
Moon 11:00 AM EDT (6/3) No Moon Set
Length of Visible Light 15h 57m
Length of Day
14h 52m
Waxing Crescent, 30% of the Moon is Illuminated
Jun 3
Waxing Crescent
Jun 5
First Quarter
Jun 13
Full
Jun 19
Last Quarter
Jun 27
New

Hourly Weather History & Observations

Time (EDT) Temp. Heat Index Dew Point Humidity Pressure Visibility Wind Dir Wind Speed Gust Speed Precip Events Conditions
1:56 AM 68.0 °F - 61.0 °F 78% 30.02 in 10.0 mi East 4.6 mph - N/A   Scattered Clouds
2:56 AM 66.0 °F - 61.0 °F 84% 30.01 in 10.0 mi ESE 5.8 mph - N/A   Partly Cloudy
3:56 AM 66.9 °F - 61.0 °F 81% 29.99 in 10.0 mi Calm Calm - N/A   Mostly Cloudy
4:56 AM 66.9 °F - 60.1 °F 79% 29.99 in 10.0 mi SE 3.5 mph - N/A   Mostly Cloudy
5:56 AM 66.9 °F - 61.0 °F 81% 29.99 in 10.0 mi Calm Calm - N/A   Scattered Clouds
6:56 AM 68.0 °F - 62.1 °F 81% 29.99 in 10.0 mi Calm Calm - N/A   Scattered Clouds
7:56 AM 72.0 °F - 62.1 °F 71% 29.98 in 10.0 mi Calm Calm - N/A   Scattered Clouds
8:56 AM 73.9 °F - 63.0 °F 68% 29.98 in 10.0 mi Calm Calm - N/A   Scattered Clouds
9:56 AM 75.9 °F - 64.0 °F 67% 29.96 in 10.0 mi Calm Calm - N/A   Scattered Clouds
10:56 AM 79.0 °F - 66.9 °F 66% 29.94 in 10.0 mi SSE 3.5 mph - N/A   Mostly Cloudy
11:56 AM 82.0 °F 84.1 °F 66.0 °F 58% 29.94 in 10.0 mi Calm Calm - N/A   Mostly Cloudy
12:17 PM 77.0 °F - 66.9 °F 71% 29.95 in 1.8 mi South 3.5 mph - 0.02 in Rain Rain
12:23 PM 77.0 °F - 69.1 °F 76% 29.95 in 3.0 mi Variable 3.5 mph - 0.03 in Rain Light Rain
12:56 PM 79.0 °F - 66.0 °F 64% 29.94 in 10.0 mi WNW 12.7 mph - 0.03 in   Mostly Cloudy
1:56 PM 80.1 °F 82.1 °F 66.0 °F 62% 29.92 in 10.0 mi West 8.1 mph - N/A   Overcast
2:56 PM 80.1 °F 82.1 °F 66.0 °F 62% 29.89 in 10.0 mi West 11.5 mph - N/A   Mostly Cloudy
3:56 PM 81.0 °F 83.3 °F 66.9 °F 62% 29.87 in 10.0 mi WSW 6.9 mph - N/A   Mostly Cloudy
4:56 PM 82.9 °F 85.4 °F 66.9 °F 58% 29.85 in 10.0 mi West 6.9 mph - N/A   Scattered Clouds
5:56 PM 84.9 °F 87.1 °F 66.0 °F 53% 29.83 in 10.0 mi West 3.5 mph - N/A   Scattered Clouds
6:56 PM 82.9 °F 85.8 °F 68.0 °F 60% 29.81 in 10.0 mi SW 5.8 mph - N/A   Partly Cloudy
7:56 PM 81.0 °F 83.0 °F 66.0 °F 60% 29.82 in 10.0 mi WSW 5.8 mph - N/A   Partly Cloudy
8:22 PM 77.0 °F - 68.0 °F 74% 29.83 in 10.0 mi SSW 3.5 mph - N/A Thunderstorm Thunderstorm
8:40 PM 72.0 °F - 61.0 °F 68% 29.88 in 1.0 mi NW 15.0 mph 35.7 mph 0.00 in Rain , Thunderstorm Heavy Thunderstorms and Rain
8:56 PM 68.0 °F - 62.1 °F 81% 29.86 in 5.0 mi SE 8.1 mph - 0.21 in Rain , Thunderstorm Light Thunderstorms and Rain
9:10 PM 69.1 °F - 63.0 °F 81% 29.86 in 9.0 mi SSE 3.5 mph - 0.00 in Thunderstorm Thunderstorm
9:23 PM 69.1 °F - 64.0 °F 84% 29.86 in 10.0 mi SSE 5.8 mph - 0.00 in   Mostly Cloudy
9:56 PM 68.0 °F - 62.6 °F 83% 29.86 in 10.0 mi Calm Calm - N/A   Mostly Cloudy
10:56 PM 68.0 °F - 62.6 °F 83% 29.86 in 10.0 mi SSE 5.8 mph - N/A   Mostly Cloudy
11:56 PM 66.9 °F - 64.0 °F 90% 29.85 in 9.0 mi Calm Calm - N/A   Scattered Clouds